"Pseudo-MPEC" for C1FVC25

Created 2026 Aug 23 14:35:11 UT using Find_Orb

Click here for an explanation of pseudo-MPECs

 
 Astrometry: 
     C1FVC25*1C2026 08 22.42981001 18 40.057+12 14 42.83   ~8MB5 21.11GVNEOCPV00
     C1FVC25 1C2026 08 22.43538601 18 42.304+12 15 47.41   ~8MB5 20.87GVNEOCPV00
     C1FVC25 1C2026 08 22.44097101 18 44.579+12 16 52.21   ~8MB5 20.65GVNEOCPV00
     C1FVC25 1C2026 08 22.46784201 18 55.501+12 22 03.18   ~8MBZ 20.45GVNEOCPV00
     C1FVC25 1C2026 08 22.46990901 18 56.354+12 22 27.34   ~8MBZ 20.57GVNEOCPV00
     C1FVC25 1C2026 08 22.47198401 18 57.197+12 22 51.06   ~8MBZ 20.59GVNEOCPV00
     C1FVC25 1C2026 08 22.47405301 18 58.043+12 23 15.32   ~8MBZ 20.55GVNEOCPV00
     C1FVC25 0B2026 08 23.07413801 23 34.947+14 18 26.44   ~8NCo 20.6 GWNEOCP204
     C1FVC25 0B2026 08 23.09374101 23 43.183+14 22 13.24   ~8NCo       WNEOCP204
     C1FVC25 0B2026 08 23.11570401 23 52.416+14 26 26.68   ~8NCo       WNEOCP204
     C1FVC25 KC2026 08 23.32181601 25 29.90 +15 06 12.0    ~8N8Z 20.9 GVNEOCPH21
     C1FVC25 KC2026 08 23.32461301 25 31.07 +15 06 44.3    ~8N8Z 20.4 GVNEOCPH21
     C1FVC25 0C2026 08 23.32485401 25 34.020+15 06 56.50   ~8NB5 21.0 RVNEOCP291
     C1FVC25 0C2026 08 23.32628001 25 34.670+15 07 13.50   ~8NB5 21.4 RVNEOCP291
     C1FVC25 0C2026 08 23.32772101 25 35.290+15 07 29.30   ~8NB5 21.4 RVNEOCP291
     C1FVC25 KC2026 08 23.33579801 25 35.74 +15 08 53.2    ~8N8Z 20.7 GVNEOCPH21

Station data:
(204) Schiaparelli Observatory  (N45.868292 E8.769720)  Italy.  Observer L.
   Buzzi. 0.84-m f/3.5 reflector + CCD.
(291) LPL/Spacewatch II  (N31.961669 W111.599905)  US/Arizona.  Observers J.
   V. Scotti, R. S. McMillan. 1.8-m f/2.7 reflector + CCD.
(H21) Astronomical Research Observatory, Westfield  (N39.483054 W87.968270)
   US/Illinois.  Observer R. Holmes. Measurers S. Foglia, L. Buzzi, T.
   Linder, R. Holmes. 0.40-m f/5.32 astrograph + CCD.
(V00) Kitt Peak-Bok  (N31.963125 W111.600190)  US/Arizona. Measurers T.
   Beuden, V. F. Carvajal, D. Fay, J. B. Fazekas, D. C. Fuls, A. R. Gibbs, A.
   D. Grauer, H. Gröller, J. K. Hogan, R. A. Kowalski, S. M. Larson, G. J.
   Leonard, D. Rankin, R. L. Seaman, F. C. Shelly, K. W. Wierzchoś. 2.25-m
   reflector + 4x4K mosaic CCD.

Orbital elements:  C1FVC25
   Perihelion 2026 Sep 15.431899 +/- 0.129 TT = 10:21:56.0 (JD 2461298.931899)
Epoch 2026 Aug 23.0 TT = JDT 2461275.5   Earth MOID: 0.0374   Ma: 0.0755
M 347.988322287 +/- 0.09            (J2000 ecliptic)             AutoNEOCP
n   0.512620763 +/- 0.00262         Peri.   27.550459 +/- 0.14
a   1.546222258 +/- 0.00528         Node   330.274093 +/- 0.017
e   0.33646682 +/- 0.0022           Incl.    8.065505 +/- 0.045
P   1.923/702.260d         H 24.94  G  0.15   U  8.8
q 1.025969767 +/- 0.000213    Q 2.066474749 +/- 0.0104
From 16 observations 2026 Aug. 22-23 (21.7 hr); mean residual 0".20
Residuals in arcseconds: 
260822 V00  .24+  .13+    260822 V00  .03-  .15+    260823 291  .47-  .14+    
260822 V00  .07-  .02+    260823 204  .13+  .16-    260823 291  .14+  .55+    
260822 V00  .03-  .05+    260823 204  .06+  .01-    260823 291  .22+  .41-    
260822 V00  .19-  .16-    260823 204  .22+  .05-    260823 H21  .30-  .30-    
260822 V00  .03-  .09+    260823 H21  .09+  .12+    
260822 V00  .07-  .19-    260823 H21  .02+  .07+    

Ephemerides (geocentric):
Date (UTC) HH   RA             Dec           delta  r     elong  mag " sig PA
---- --------  ------------   ------------  ------ ------ -----  --- --------
2026 08 23 15  01 27 47.248   +16 05 06.02  .06740 1.0500 123.6 21.1 .697  82
2026 08 23 16  01 28 06.537   +16 13 02.95  .06741 1.0499 123.6 21.2 .769  77
2026 08 23 17  01 28 25.839   +16 20 59.57  .06742 1.0498 123.5 21.2 .848  73
2026 08 23 18  01 28 45.152   +16 28 55.87  .06743 1.0497 123.4 21.2 .935  70
2026 08 23 19  01 29 04.477   +16 36 51.84  .06744 1.0497 123.3 21.2 1.03  67
2026 08 23 20  01 29 23.814   +16 44 47.47  .06745 1.0496 123.2 21.2 1.13  64
2026 08 23 21  01 29 43.163   +16 52 42.76  .06746 1.0495 123.1 21.2 1.23  62
2026 08 23 22  01 30 02.524   +17 00 37.69  .06748 1.0494 123.0 21.2 1.34  60
2026 08 23 23  01 30 21.896   +17 08 32.27  .06749 1.0493 122.9 21.2 1.46  58
2026 08 24 00  01 30 41.279   +17 16 26.49  .06751 1.0492 122.9 21.2 1.58  56
2026 08 24 01  01 31 00.675   +17 24 20.33  .06752 1.0491 122.8 21.2 1.71  55
2026 08 24 02  01 31 20.081   +17 32 13.78  .06753 1.0491 122.7 21.2 1.84  54
2026 08 24 03  01 31 39.500   +17 40 06.85  .06755 1.0490 122.6 21.2 1.98  52
2026 08 24 04  01 31 58.929   +17 47 59.53  .06757 1.0489 122.5 21.2 2.12  51
2026 08 24 05  01 32 18.370   +17 55 51.80  .06758 1.0488 122.4 21.2 2.27  50
2026 08 24 06  01 32 37.822   +18 03 43.66  .06760 1.0487 122.3 21.2 2.42  50
2026 08 24 07  01 32 57.285   +18 11 35.10  .06762 1.0486 122.2 21.2 2.57  49
2026 08 24 08  01 33 16.760   +18 19 26.12  .06763 1.0486 122.1 21.2 2.74  48
2026 08 24 09  01 33 36.246   +18 27 16.70  .06765 1.0485 122.1 21.2 2.90  47
2026 08 24 10  01 33 55.742   +18 35 06.85  .06767 1.0484 122.0 21.2 3.07  47
2026 08 24 11  01 34 15.250   +18 42 56.55  .06769 1.0483 121.9 21.2 3.25  46
2026 08 24 12  01 34 34.769   +18 50 45.80  .06771 1.0482 121.8 21.2 3.43  46
2026 08 24 13  01 34 54.298   +18 58 34.58  .06773 1.0481 121.7 21.2 3.61  45
2026 08 24 14  01 35 13.839   +19 06 22.90  .06775 1.0481 121.6 21.2 3.80  45
2026 08 24 15  01 35 33.390   +19 14 10.75  .06777 1.0480 121.5 21.2 3.99  44
2026 08 24 16  01 35 52.952   +19 21 58.11  .06779 1.0479 121.4 21.2 4.19  44
2026 08 24 17  01 36 12.524   +19 29 44.98  .06782 1.0478 121.4 21.2 4.39  43
2026 08 24 18  01 36 32.108   +19 37 31.36  .06784 1.0477 121.3 21.2 4.59  43
2026 08 24 19  01 36 51.701   +19 45 17.24  .06786 1.0477 121.2 21.2 4.80  43
2026 08 24 20  01 37 11.306   +19 53 02.61  .06788 1.0476 121.1 21.2 5.02  42
2026 08 24 21  01 37 30.920   +20 00 47.46  .06791 1.0475 121.0 21.2 5.23  42
2026 08 24 22  01 37 50.546   +20 08 31.79  .06793 1.0474 120.9 21.2 5.46  42
2026 08 24 23  01 38 10.181   +20 16 15.59  .06796 1.0473 120.8 21.2 5.68  42
2026 08 25 00  01 38 29.827   +20 23 58.86  .06798 1.0472 120.7 21.2 5.91  41
2026 08 25 01  01 38 49.483   +20 31 41.58  .06801 1.0472 120.7 21.2 6.15  41
2026 08 25 02  01 39 09.149   +20 39 23.76  .06803 1.0471 120.6 21.2 6.39  41
2026 08 25 03  01 39 28.826   +20 47 05.38  .06806 1.0470 120.5 21.2 6.63  41
2026 08 25 04  01 39 48.512   +20 54 46.43  .06809 1.0469 120.4 21.3 6.88  41
2026 08 25 05  01 40 08.208   +21 02 26.92  .06812 1.0468 120.3 21.3 7.13  40
2026 08 25 06  01 40 27.915   +21 10 06.84  .06814 1.0468 120.2 21.3 7.39  40
2026 08 25 07  01 40 47.631   +21 17 46.17  .06817 1.0467 120.1 21.3 7.65  40
2026 08 25 08  01 41 07.357   +21 25 24.92  .06820 1.0466 120.0 21.3 7.91  40
2026 08 25 09  01 41 27.093   +21 33 03.08  .06823 1.0465 120.0 21.3 8.18  40
2026 08 25 10  01 41 46.838   +21 40 40.63  .06826 1.0464 119.9 21.3 8.45  40
2026 08 25 11  01 42 06.593   +21 48 17.58  .06829 1.0464 119.8 21.3 8.72  39
2026 08 25 12  01 42 26.358   +21 55 53.92  .06832 1.0463 119.7 21.3 9.00  39
2026 08 25 13  01 42 46.132   +22 03 29.64  .06835 1.0462 119.6 21.3 9.28  39
2026 08 25 14  01 43 05.916   +22 11 04.73  .06838 1.0461 119.5 21.3 9.57  39